TimeCET,TemperatureF,Dew PointF,Humidity,Sea Level PressureIn,VisibilityMPH,Wind Direction,Wind SpeedMPH,Gust SpeedMPH,PrecipitationIn,Events,Conditions,WindDirDegrees,DateUTC
12:15 AM,21.2,21.2,100,30.33,0.9,WNW,2.2,-,N/A,,Scattered Clouds,290,2012-12-30 23:15:00
12:45 AM,23.0,23.0,100,30.33,1.2,WNW,2.2,-,N/A,,Mostly Cloudy,290,2012-12-30 23:45:00
1:15 AM,23.0,23.0,100,30.36,1.2,West,4.5,-,N/A,,Mostly Cloudy,280,2012-12-31 00:15:00
1:45 AM,19.4,19.4,100,30.36,1.2,West,4.5,-,N/A,,Scattered Clouds,280,2012-12-31 00:45:00
2:15 AM,19.4,19.4,100,30.36,1.2,West,2.2,-,N/A,,Scattered Clouds,280,2012-12-31 01:15:00
3:15 AM,21.2,19.4,93,30.36,1.2,West,2.2,-,N/A,,Scattered Clouds,280,2012-12-31 02:15:00
3:45 AM,21.2,21.2,100,30.33,1.2,West,2.2,-,N/A,,Scattered Clouds,270,2012-12-31 02:45:00
4:15 AM,23.0,21.2,93,30.36,1.9,WSW,2.2,-,N/A,,Partly Cloudy,250,2012-12-31 03:15:00
4:45 AM,21.2,21.2,100,30.33,1.9,WSW,2.2,-,N/A,,Partly Cloudy,250,2012-12-31 03:45:00
5:15 AM,19.4,19.4,100,30.36,1.2,NW,4.5,-,N/A,,Partly Cloudy,310,2012-12-31 04:15:00
5:45 AM,-9999,-9999,N/A,-9999,1.9,WSW,6.7,-,N/A,Fog,Light Freezing Fog,240,2012-12-31 04:45:00
6:15 AM,19.4,19.4,100,30.36,1.2,WSW,2.2,-,N/A,,Partly Cloudy,240,2012-12-31 05:15:00
6:45 AM,21.2,19.4,93,30.36,1.2,SSW,2.2,-,N/A,,Scattered Clouds,200,2012-12-31 05:45:00
6:55 AM,19.4,19.4,100,30.36,0.5,SW,2.2,-,N/A,Fog,Light Freezing Fog,220,2012-12-31 05:55:00
7:45 AM,21.2,21.2,100,30.36,0.5,Calm,Calm,-,N/A,Fog,Fog,0,2012-12-31 06:45:00
8:15 AM,21.2,21.2,100,30.39,0.5,Calm,Calm,-,N/A,Fog,Light Freezing Fog,0,2012-12-31 07:15:00
8:45 AM,-9999,-9999,N/A,-9999,1.9,WSW,6.7,-,N/A,Fog,Light Freezing Fog,240,2012-12-31 07:45:00
9:15 AM,24.8,24.8,100,30.39,0.6,West,2.2,-,N/A,,Scattered Clouds,270,2012-12-31 08:15:00
9:45 AM,26.6,26.6,100,30.39,0.9,West,2.2,-,N/A,,Partly Cloudy,270,2012-12-31 08:45:00
10:15 AM,28.4,28.4,100,30.39,1.2,SW,2.2,-,N/A,,Partly Cloudy,230,2012-12-31 09:15:00
10:45 AM,28.4,28.4,100,30.36,1.6,SW,2.2,-,N/A,,Partly Cloudy,220,2012-12-31 09:45:00
10:56 AM,30.2,30.2,100,30.36,1.9,SW,2.2,-,N/A,,Partly Cloudy,230,2012-12-31 09:56:00
11:15 AM,30.2,30.2,100,30.36,1.9,WSW,4.5,-,N/A,,Clear,240,2012-12-31 10:15:00
11:45 AM,-9999,-9999,N/A,-9999,1.9,SSW,4.5,-,N/A,Fog,Light Freezing Fog,200,2012-12-31 10:45:00
12:15 PM,33.8,32.0,93,30.33,2.5,West,2.2,-,N/A,,Clear,260,2012-12-31 11:15:00
12:45 PM,33.8,32.0,93,30.33,2.5,West,4.5,-,N/A,,Clear,260,2012-12-31 11:45:00
1:02 PM,35.6,32.0,87,30.33,3.1,SW,4.5,-,N/A,,Clear,230,2012-12-31 12:02:00
1:15 PM,37.4,32.0,81,30.33,3.1,SW,4.5,-,N/A,,Clear,230,2012-12-31 12:15:00
1:45 PM,37.4,32.0,81,30.33,3.1,SW,2.2,-,N/A,,Clear,220,2012-12-31 12:45:00
2:15 PM,39.2,32.0,75,30.33,3.1,SW,2.2,-,N/A,,Partly Cloudy,230,2012-12-31 13:15:00
2:45 PM,-9999,-9999,N/A,-9999,1.9,SSW,4.5,-,N/A,Fog,Light Freezing Fog,200,2012-12-31 13:45:00
3:15 PM,37.4,32.0,81,30.30,3.1,South,2.2,-,N/A,,Partly Cloudy,170,2012-12-31 14:15:00
3:45 PM,35.6,32.0,87,30.30,2.5,South,2.2,-,N/A,,Partly Cloudy,170,2012-12-31 14:45:00
4:15 PM,33.8,32.0,93,30.30,1.9,SSE,2.2,-,N/A,,Partly Cloudy,150,2012-12-31 15:15:00
4:45 PM,33.8,32.0,93,30.30,1.9,SSE,2.2,-,N/A,,Partly Cloudy,150,2012-12-31 15:45:00
5:15 PM,32.0,30.2,93,30.27,1.9,SSE,4.5,-,N/A,,Clear,160,2012-12-31 16:15:00
5:45 PM,-9999,-9999,N/A,-9999,-9999.0,North,-9999.0,-,N/A,,Unknown,0,2012-12-31 16:45:00
6:08 PM,30.2,30.2,100,30.27,1.9,SSE,6.7,-,N/A,,Clear,150,2012-12-31 17:08:00
6:15 PM,28.4,28.4,100,30.27,0.4,SSE,6.7,-,N/A,Fog,Light Freezing Fog,150,2012-12-31 17:15:00
6:41 PM,28.4,28.4,100,30.27,0.2,SE,4.5,-,N/A,Fog,Light Freezing Fog,140,2012-12-31 17:41:00
6:45 PM,28.4,28.4,100,30.27,0.2,SSE,6.7,-,N/A,Fog,Light Freezing Fog,150,2012-12-31 17:45:00
7:00 PM,-9999,-9999,N/A,-9999,-9999.0,North,-9999.0,-,N/A,,Unknown,0,2012-12-31 18:00:00
7:15 PM,28.4,28.4,100,30.27,0.1,SSE,8.9,-,N/A,Fog,Light Freezing Fog,150,2012-12-31 18:15:00
7:45 PM,28.4,28.4,100,30.27,0.1,SSE,6.7,-,N/A,Fog,Light Freezing Fog,150,2012-12-31 18:45:00
8:15 PM,26.6,26.6,100,30.27,0.1,SSE,6.7,-,N/A,Fog,Light Freezing Fog,150,2012-12-31 19:15:00
8:45 PM,-9999,-9999,N/A,-9999,-9999.0,North,-9999.0,-,N/A,,Unknown,0,2012-12-31 19:45:00
9:15 PM,26.6,26.6,100,30.27,0.1,SSE,6.7,-,N/A,Fog,Light Freezing Fog,160,2012-12-31 20:15:00
9:45 PM,26.6,26.6,100,30.27,0.1,SSE,6.7,-,N/A,Fog,Light Freezing Fog,150,2012-12-31 20:45:00
10:15 PM,26.6,26.6,100,30.27,0.1,SE,6.7,-,N/A,Fog,Light Freezing Fog,140,2012-12-31 21:15:00
10:45 PM,26.6,26.6,100,30.27,0.1,SE,6.7,-,N/A,Fog,Light Freezing Fog,140,2012-12-31 21:45:00
11:15 PM,24.8,24.8,100,30.24,0.1,SE,6.7,-,N/A,Fog,Light Freezing Fog,130,2012-12-31 22:15:00
11:45 PM,-9999,-9999,N/A,-9999,1.9,North,-9999.0,-,N/A,Fog,Light Freezing Fog,0,2012-12-31 22:45:00